USA 170

Last updated on Thu Dec 18 2025 00:02:47 GMT+0000 (Coordinated Universal Time)

1 27875U 03040A 25350.84669241 .00000141 00000+0 00000+0 0 9995 2 27875 10.1134 49.6542 0003146 256.3510 108.6821 1.00275783 31167
UTC large
Height (km)
Speed (km/s)
/
Latitude / Longitude
Inclination (degrees)
Orbital Period (minutes)
Azimuth
Elevation
Range (km)
Doppler Factor

Next 0 passes for location: London (51.5072 / 0.1276)

Sorry there are no passes over London.